Location: Christianberg
(48.9086°N, 14.0209°E)
Time: 22:07:10
(UTC+00:00)

CENTAUR R/B - Pass Details

Date: 20 June 2021
Orbit: 740 x 1447 km, 63.4° (Epoch: 17 July)

Event Time Altitude Azimuth Distance (km) Brightness Sun altitude
Rises 01:09:19 0° 315° (NW) 4,017 5.9 -12.6°
Reaches altitude 10° 01:12:01 10° 321° (NW) 3,151 5.4 -12.3°
Maximum altitude 01:19:32 50° 35° (NE) 1,659 4.2 -11.7°
Drops below altitude 10° 01:27:59 10° 109° (ESE) 3,527 5.6 -11.0°
Sets 01:31:09 0° 115° (ESE) 4,530 6.1 -10.7°
